Regional Weather Roundup
Issued by NWS

Home | Current Version | Previous Version | Graphics & Text | Print | Product List | Glossary On
Versions: 1 2 3 4 5 6 7 8 9 10 11 12 13 14 15 16 17 18 19 20 21 22 23 24 25 26 27 28 29 30 31 32 33 34 35 36 37 38 39 40 41 42 43 44 45 46 47 48 49 50
000
ASUS43 KLOT 200906
RWRIL

ILLINOIS REGIONAL WEATHER ROUNDUP
NATIONAL WEATHER SERVICE CHICAGO/ROMEOVILLE IL
400 AM CDT MON OCT 20 2014

NOTE: "FAIR" INDICATES FEW OR NO CLOUDS BELOW 12,000 FEET WITH NO
SIGNIFICANT WEATHER AND/OR OBSTRUCTIONS TO VISIBILITY.

* THESE STATIONS ARE NOT UNDER NWS QUALITY CONTROL. THEY ALSO MAY NOT
  REPORT WEATHER SUCH AS PRECIPITATION OR FOG.

ILZ001-002-007-009-015-016-024-201000-
NORTHWEST ILLINOIS

CITY           SKY/WX    TMP DP  RH WIND       PRES   REMARKS
MOLINE         CLEAR     48  43  82 W3        29.86S
STERLING*      CLEAR     48  41  76 W7        29.84S
SAVANNA*       CLEAR     51  44  76 W5        29.83F
$$

ILZ003-004-008-010-011-017-018-201000-
NORTH CENTRAL ILLINOIS

CITY           SKY/WX    TMP DP  RH WIND       PRES   REMARKS
ROCKFORD       PTCLDY    47  42  83 S7        29.83F
FREEPORT*      PTCLDY    47  42  83 SW8       29.83S
ROCHELLE*      CLEAR     43  41  93 CALM      29.83F
DE KALB*       CLEAR     45  42  89 S6        29.83F
PERU*          CLEAR     52  45  78 SW12      29.85F
$$

ILZ005-006-012>014-019>023-201000-
NORTHEAST ILLINOIS

CITY           SKY/WX    TMP DP  RH WIND       PRES   REMARKS
CHICAGO-OHARE  PTCLDY    50  43  77 SW12G18   29.82F
CHICAGO-MIDWAY CLEAR     50  45  83 SW10      29.83F
AURORA         CLEAR     47  42  83 S5        29.84F
LANSING*       PTCLDY    50  44  81 SW10G21   29.86F
JOLIET*        CLEAR     47  44  88 S5        29.85F
WAUKEGAN       PTCLDY    50  43  77 SW10      29.79F
DUPAGE AIRPORT CLEAR     46  43  89 S6        29.83F
KANKAKEE*      CLOUDY    49  45  85 S9        29.88F
WHEELING       CLEAR     51  43  74 SW7       29.84F
MORRIS*        CLEAR     48  46  92 SW5       29.84F
ROMEOVILLE*    CLEAR     44  43  97 S6        29.84F
NORTHERLY ISL    N/A     51  44  77 SW7         N/A
$$

LMZ740>746-201000-
SOUTHERN LAKE MICHIGAN

STATION/POSITION SKY/WX   TEMP    WIND        PRES    VSBY  WAVE
                          AIR SEA DIR/SP/G                  HT/PER
                          (F)     (DEG/KT/KT) (MB)    (MI)  (FT/S)
SOUTHERN BUOY              55 54  230/ 17/ 21 1008.9F         5/ 6
WAUKEGAN HARBOR            52     260/ 13/ 17   N/A
HARRISON CRIB              52     210/ 26/ 29   N/A
BURNHAM HARBOR             51     250/  6/ 10   N/A
CALUMET HARBOR             51     200/ 11/ 15 1009.2F
MICHIGAN CITY              52     170/ 16/ 21   N/A
$$

ILZ025>027-034>036-040-047-049-050-058-095>099-201000-
WEST-CENTRAL ILLINOIS

CITY           SKY/WX    TMP DP  RH WIND       PRES   REMARKS
QUINCY         CLEAR     54  48  80 SW10      29.92F
GALESBURG*     CLEAR     49  45  87 SW6       29.88S
MACOMB*        CLEAR     52  47  84 W9        29.90F
JACKSONVILLE*  MOCLDY    55  48  78 SW10      29.92F
PITTSFIELD*    CLEAR     56  49  77 SW12      29.94F
$$

ILZ028>032-037-038-041>044-048-051>054-059>061-201000-
CENTRAL ILLINOIS

CITY           SKY/WX    TMP DP  RH WIND       PRES   REMARKS
PONTIAC        CLEAR     52  46  82 SW7       29.86F
BLOOMINGTON    CLEAR     50  46  85 SW10      29.90F
DECATUR        CLEAR     50  46  86 SW10      29.94F
PEORIA         CLEAR     49  44  83 SW5       29.88F
LACON*         CLEAR     51  45  79 SW7       29.86S
LINCOLN*       MOCLDY    53  47  79 SW6       29.89F
SPRINGFIELD    MOCLDY    54  46  74 SW9       29.93F
TAYLORVILLE    PTCLDY    50  45  81 SW7       29.95S
$$

ILZ033-039-045-046-055>057-062-063-201000-
EAST-CENTRAL ILLINOIS

CITY           SKY/WX    TMP DP  RH WIND       PRES   REMARKS
CHAMPAIGN      CLEAR     47  44  90 S8        29.92F
DANVILLE*      MOCLDY    47  44  88 SW8       29.90F
RANTOUL*       CLOUDY    53  45  74 SW12      29.91F
MATTOON        PTCLDY    50  45  83 S8        29.95F
PARIS*         CLOUDY    51  46  84 S7        29.96F
$$

ILZ079-100>102-201000-
SOUTHWEST ILLINOIS

CITY           SKY/WX    TMP DP  RH WIND       PRES   REMARKS
ALTON          MOCLDY    55  47  75 SW7       29.98F
BELLEVILLE     CLOUDY    53  49  86 SW7       29.98F
CAHOKIA*       MOCLDY    57  47  69 SW6       29.98F
SPARTA*        PTCLDY    51  47  84 S5        30.01F
$$

ILZ064>066-069>071-074>076-080>082-084>086-088>090-092>094-201000-
SOUTH-CENTRAL ILLINOIS

CITY           SKY/WX    TMP DP  RH WIND       PRES   REMARKS
CARBONDALE     LGT RAIN  50  46  86 S7        30.02F
CAIRO*         MOCLDY    48  46  90 CALM      30.06S
EFFINGHAM*     MOCLDY    51  44  76 S5        29.97F
MARION         MOCLDY    50  46  87 S5        30.03F
MT. VERNON     CLOUDY    52  45  76 S6        30.01F
CENTRALIA*     CLOUDY    52  46  81 SW6       30.00F
SALEM*         CLOUDY    55  49  80 SW7       30.00F
METROPOLIS*    MOCLDY    47  47 100 CALM      30.05F FOG
$$

ILZ067-068-072-073-078-083-087-091-201000-
SOUTHEAST ILLINOIS

CITY           SKY/WX    TMP DP  RH WIND       PRES   REMARKS
LAWRENCEVILLE  CLOUDY    49  47  93 S7        30.01F
FLORA*         CLOUDY    51  47  85 SW8       30.00F
FAIRFIELD*     CLOUDY    50  47  92 S3        30.00F
HARRISBURG*    MOCLDY    46  46 100 CALM      30.04F
ROBINSON*      CLOUDY    51  47  87 S7        30.01F
CARMI*         CLOUDY    50  49  95 S6        30.02F
$$

ABBREVIATIONS USED IN REMARKS
   TC - TEMPERATURE IN CELSIUS
  WCI - WIND CHILL INDEX
   HX - HEAT INDEX
  VSB - VISIBILITY
$$



USA.gov is the U.S. government's official web portal to all federal, state and local government web resources and services.